owner,sensor,date,latitude,longitude,vertical_datum,direction_of_sea_water_velocity,sea_water_speed,upward_sea_water_velocity,qcFlag 
TABS,ioos:station:wmo:42049:1,2004-07-01T00:00:00Z,28.3507,-96.0058,2.0,261.1360957,9.280829704,-99999.0,'11133222,11111222,99999999' 
TABS,ioos:station:wmo:42049:1,2004-07-01T00:30:00Z,28.3507,-96.0058,2.0,255.5915654,7.47510535,-99999.0,'11133222,11111222,99999999' 
TABS,ioos:station:wmo:42049:1,2004-07-01T01:00:00Z,28.3507,-96.0058,2.0,265.3641265,8.909141373,-99999.0,'11133222,11111222,99999999' 
TABS,ioos:station:wmo:42049:1,2004-07-01T01:30:00Z,28.3507,-96.0058,2.0,292.2290153,4.731648761,-99999.0,'11133222,11111222,99999999' 
TABS,ioos:station:wmo:42049:1,2004-07-01T02:00:00Z,28.3507,-96.0058,2.0,288.3067171,5.635192987,-99999.0,'11133222,11111222,99999999' 
TABS,ioos:station:wmo:42049:1,2004-07-01T02:30:00Z,28.3507,-96.0058,2.0,281.3103269,3.467333269,-99999.0,'11133222,11111222,99999999' 
TABS,ioos:station:wmo:42049:1,2004-07-01T03:00:00Z,28.3507,-96.0058,2.0,294.4779033,2.823791777,-99999.0,'11133222,11111222,99999999' 
TABS,ioos:station:wmo:42049:1,2004-07-01T03:30:00Z,28.3507,-96.0058,2.0,264.8051623,2.429979424,-99999.0,'11133222,11111222,99999999' 
TABS,ioos:station:wmo:42049:1,2004-07-01T04:00:00Z,28.3507,-96.0058,2.0,283.7102487,4.683438907,-99999.0,'11133222,11111222,99999999' 
TABS,ioos:station:wmo:42049:1,2004-07-01T04:30:00Z,28.3507,-96.0058,2.0,297.5949249,4.23132367,-99999.0,'11133222,11111222,99999999' 
TABS,ioos:station:wmo:42049:1,2004-07-01T05:00:00Z,28.3507,-96.0058,2.0,276.058648,4.263812848,-99999.0,'11133222,11111222,99999999' 
TABS,ioos:station:wmo:42049:1,2004-07-01T05:30:00Z,28.3507,-96.0058,2.0,307.802328,3.442455519,-99999.0,'11133222,11111222,99999999' 
TABS,ioos:station:wmo:42049:1,2004-07-01T06:00:00Z,28.3507,-96.0058,2.0,288.9753724,3.690541966,-99999.0,'11133222,11111222,99999999' 
TABS,ioos:station:wmo:42049:1,2004-07-01T06:30:00Z,28.3507,-96.0058,2.0,311.9120768,5.643837347,-99999.0,'11133222,11111222,99999999' 
TABS,ioos:station:wmo:42049:1,2004-07-01T07:00:00Z,28.3507,-96.0058,2.0,294.6369922,6.644885251,-99999.0,'11133222,11111222,99999999' 
TABS,ioos:station:wmo:42049:1,2004-07-01T07:30:00Z,28.3507,-96.0058,2.0,307.460181,8.352442756,-99999.0,'11133222,11111222,99999999' 
TABS,ioos:station:wmo:42049:1,2004-07-01T08:00:00Z,28.3507,-96.0058,2.0,290.9386774,4.561195019,-99999.0,'11133222,11111222,99999999' 
TABS,ioos:station:wmo:42049:1,2004-07-01T08:30:00Z,28.3507,-96.0058,2.0,314.679335,5.048821645,-99999.0,'11133222,11111222,99999999' 
TABS,ioos:station:wmo:42049:1,2004-07-01T09:00:00Z,28.3507,-96.0058,2.0,305.9076598,6.666940828,-99999.0,'11133222,11111222,99999999' 
TABS,ioos:station:wmo:42049:1,2004-07-01T09:30:00Z,28.3507,-96.0058,2.0,302.7355706,12.48248773,-99999.0,'11111222,11111222,99999999' 
TABS,ioos:station:wmo:42049:1,2004-07-01T10:00:00Z,28.3507,-96.0058,2.0,308.7702943,12.18469942,-99999.0,'11111222,11111222,99999999' 
TABS,ioos:station:wmo:42049:1,2004-07-01T10:30:00Z,28.3507,-96.0058,2.0,305.9453735,15.8600662,-99999.0,'11111222,11111222,99999999' 
TABS,ioos:station:wmo:42049:1,2004-07-01T11:00:00Z,28.3507,-96.0058,2.0,314.6017437,8.131924741,-99999.0,'11133222,11111222,99999999' 
TABS,ioos:station:wmo:42049:1,2004-07-01T11:30:00Z,28.3507,-96.0058,2.0,311.7557359,12.49339025,-99999.0,'11111222,11111222,99999999' 
TABS,ioos:station:wmo:42049:1,2004-07-01T12:00:00Z,28.3507,-96.0058,2.0,318.2768617,9.526158722,-99999.0,'11133222,11111222,99999999' 
TABS,ioos:station:wmo:42049:1,2004-07-01T12:30:00Z,28.3507,-96.0058,2.0,320.6777191,12.15113163,-99999.0,'11111222,11111222,99999999' 
TABS,ioos:station:wmo:42049:1,2004-07-01T13:00:00Z,28.3507,-96.0058,2.0,314.1145538,11.43528312,-99999.0,'11111222,11111222,99999999' 
TABS,ioos:station:wmo:42049:1,2004-07-01T13:30:00Z,28.3507,-96.0058,2.0,317.7859244,9.748379352,-99999.0,'11133222,11111222,99999999' 
TABS,ioos:station:wmo:42049:1,2004-07-01T14:00:00Z,28.3507,-96.0058,2.0,318.4009816,8.344411303,-99999.0,'11133222,11111222,99999999' 
TABS,ioos:station:wmo:42049:1,2004-07-01T14:30:00Z,28.3507,-96.0058,2.0,313.1577647,10.33617434,-99999.0,'11111222,11111222,99999999' 
TABS,ioos:station:wmo:42049:1,2004-07-01T15:00:00Z,28.3507,-96.0058,2.0,332.7576992,12.10244603,-99999.0,'11111222,11111222,99999999' 
TABS,ioos:station:wmo:42049:1,2004-07-01T15:30:00Z,28.3507,-96.0058,2.0,331.8329638,9.596483731,-99999.0,'11133222,11111222,99999999' 
TABS,ioos:station:wmo:42049:1,2004-07-01T16:00:00Z,28.3507,-96.0058,2.0,336.6420299,8.953820414,-99999.0,'11133222,11111222,99999999' 
TABS,ioos:station:wmo:42049:1,2004-07-01T16:30:00Z,28.3507,-96.0058,2.0,339.6648453,9.726191444,-99999.0,'11133222,11111222,99999999' 
TABS,ioos:station:wmo:42049:1,2004-07-01T17:00:00Z,28.3507,-96.0058,2.0,0.366545911,7.820159845,-99999.0,'11133222,11111222,99999999' 
TABS,ioos:station:wmo:42049:1,2004-07-01T17:30:00Z,28.3507,-96.0058,2.0,347.0443308,8.875956287,-99999.0,'11133222,11111222,99999999' 
TABS,ioos:station:wmo:42049:1,2004-07-01T18:00:00Z,28.3507,-96.0058,2.0,328.4551235,9.633571508,-99999.0,'11133222,11111222,99999999' 
TABS,ioos:station:wmo:42049:1,2004-07-01T18:30:00Z,28.3507,-96.0058,2.0,343.7917581,11.96560487,-99999.0,'11111222,11111222,99999999' 
TABS,ioos:station:wmo:42049:1,2004-07-01T19:00:00Z,28.3507,-96.0058,2.0,354.0144506,16.78149576,-99999.0,'11111222,11111222,99999999' 
TABS,ioos:station:wmo:42049:1,2004-07-01T19:30:00Z,28.3507,-96.0058,2.0,356.544867,12.11201882,-99999.0,'11111222,11111222,99999999' 
TABS,ioos:station:wmo:42049:1,2004-07-01T20:00:00Z,28.3507,-96.0058,2.0,6.859438446,8.289330492,-99999.0,'11133222,11111222,99999999' 
TABS,ioos:station:wmo:42049:1,2004-07-01T20:30:00Z,28.3507,-96.0058,2.0,20.45647639,6.724024093,-99999.0,'11133222,11111222,99999999' 
TABS,ioos:station:wmo:42049:1,2004-07-01T21:00:00Z,28.3507,-96.0058,2.0,359.0667591,4.910651688,-99999.0,'11133222,11144222,99999999' 
TABS,ioos:station:wmo:42049:1,2004-07-01T21:30:00Z,28.3507,-96.0058,2.0,0.543796099,5.270237186,-99999.0,'11133222,11111222,99999999' 
TABS,ioos:station:wmo:42049:1,2004-07-01T22:00:00Z,28.3507,-96.0058,2.0,7.455520081,5.163651809,-99999.0,'11133222,11111222,99999999' 
TABS,ioos:station:wmo:42049:1,2004-07-01T22:30:00Z,28.3507,-96.0058,2.0,0.261236651,4.390045558,-99999.0,'11133222,11111222,99999999' 
TABS,ioos:station:wmo:42049:1,2004-07-01T23:00:00Z,28.3507,-96.0058,2.0,342.1391481,5.999141605,-99999.0,'11133222,11111222,99999999' 
TABS,ioos:station:wmo:42049:1,2004-07-01T23:30:00Z,28.3507,-96.0058,2.0,354.5099168,5.434933302,-99999.0,'11133222,11111222,99999999' 
TABS,ioos:station:wmo:42049:1,2004-07-02T00:00:00Z,28.3507,-96.0058,2.0,351.7735072,2.515889505,-99999.0,'11133222,11111222,99999999' 
TABS,ioos:station:wmo:42049:1,2004-07-02T00:30:00Z,28.3507,-96.0058,2.0,309.8595298,4.1035838,-99999.0,'11133222,11111222,99999999' 
TABS,ioos:station:wmo:42049:1,2004-07-02T01:00:00Z,28.3507,-96.0058,2.0,301.5104551,2.697795396,-99999.0,'11133222,11111222,99999999' 
TABS,ioos:station:wmo:42049:1,2004-07-02T01:30:00Z,28.3507,-96.0058,2.0,307.6042564,2.966243416,-99999.0,'11133222,11111222,99999999' 
TABS,ioos:station:wmo:42049:1,2004-07-02T02:00:00Z,28.3507,-96.0058,2.0,305.5814378,6.135552135,-99999.0,'11133222,11111222,99999999' 
TABS,ioos:station:wmo:42049:1,2004-07-02T02:30:00Z,28.3507,-96.0058,2.0,274.860024,2.478911051,-99999.0,'11133222,11111222,99999999' 
TABS,ioos:station:wmo:42049:1,2004-07-02T03:00:00Z,28.3507,-96.0058,2.0,294.3162838,4.444254718,-99999.0,'11133222,11111222,99999999' 
TABS,ioos:station:wmo:42049:1,2004-07-02T03:30:00Z,28.3507,-96.0058,2.0,278.6432033,3.793072633,-99999.0,'11133222,11111222,99999999' 
TABS,ioos:station:wmo:42049:1,2004-07-02T04:00:00Z,28.3507,-96.0058,2.0,289.209545,4.680598252,-99999.0,'11133222,11111222,99999999' 
TABS,ioos:station:wmo:42049:1,2004-07-02T04:30:00Z,28.3507,-96.0058,2.0,281.1550546,5.065698372,-99999.0,'11133222,11111222,99999999' 
TABS,ioos:station:wmo:42049:1,2004-07-02T05:00:00Z,28.3507,-96.0058,2.0,283.7236577,6.660127626,-99999.0,'11133222,11111222,99999999' 
TABS,ioos:station:wmo:42049:1,2004-07-02T05:30:00Z,28.3507,-96.0058,2.0,278.4947768,4.671241805,-99999.0,'11133222,11111222,99999999' 
TABS,ioos:station:wmo:42049:1,2004-07-02T06:00:00Z,28.3507,-96.0058,2.0,287.9070498,3.772757612,-99999.0,'11133222,11111222,99999999' 
TABS,ioos:station:wmo:42049:1,2004-07-02T06:30:00Z,28.3507,-96.0058,2.0,294.4943002,5.692275468,-99999.0,'11133222,11111222,99999999' 
TABS,ioos:station:wmo:42049:1,2004-07-02T07:00:00Z,28.3507,-96.0058,2.0,304.9550088,5.026808132,-99999.0,'11133222,11111222,99999999' 
TABS,ioos:station:wmo:42049:1,2004-07-02T07:30:00Z,28.3507,-96.0058,2.0,319.6931672,3.802841043,-99999.0,'11133222,11111222,99999999' 
TABS,ioos:station:wmo:42049:1,2004-07-02T08:00:00Z,28.3507,-96.0058,2.0,311.8852582,4.163940441,-99999.0,'11133222,11111222,99999999' 
TABS,ioos:station:wmo:42049:1,2004-07-02T08:30:00Z,28.3507,-96.0058,2.0,322.9977705,2.592006944,-99999.0,'11133222,11111222,99999999' 
TABS,ioos:station:wmo:42049:1,2004-07-02T09:00:00Z,28.3507,-96.0058,2.0,322.7338957,5.202124566,-99999.0,'11133222,11111222,99999999' 
TABS,ioos:station:wmo:42049:1,2004-07-02T09:30:00Z,28.3507,-96.0058,2.0,327.1017559,4.216123812,-99999.0,'11133222,11111222,99999999' 
TABS,ioos:station:wmo:42049:1,2004-07-02T10:00:00Z,28.3507,-96.0058,2.0,313.9655315,4.306982703,-99999.0,'11133222,11111222,99999999' 
TABS,ioos:station:wmo:42049:1,2004-07-02T10:30:00Z,28.3507,-96.0058,2.0,325.3108352,6.360605317,-99999.0,'11133222,11111222,99999999' 
TABS,ioos:station:wmo:42049:1,2004-07-02T11:00:00Z,28.3507,-96.0058,2.0,339.7176988,6.375303914,-99999.0,'11133222,11111222,99999999' 
TABS,ioos:station:wmo:42049:1,2004-07-02T11:30:00Z,28.3507,-96.0058,2.0,335.0652995,6.760133135,-99999.0,'11133222,11111222,99999999' 
TABS,ioos:station:wmo:42049:1,2004-07-02T12:00:00Z,28.3507,-96.0058,2.0,332.0208015,6.884714954,-99999.0,'11133222,11111222,99999999' 
TABS,ioos:station:wmo:42049:1,2004-07-02T12:30:00Z,28.3507,-96.0058,2.0,350.9132951,6.775027675,-99999.0,'11133222,11111222,99999999' 
TABS,ioos:station:wmo:42049:1,2004-07-02T13:00:00Z,28.3507,-96.0058,2.0,2.330723877,6.885695317,-99999.0,'11133222,11111222,99999999' 
TABS,ioos:station:wmo:42049:1,2004-07-02T13:30:00Z,28.3507,-96.0058,2.0,351.7423937,5.709194339,-99999.0,'11133222,11111222,99999999' 
TABS,ioos:station:wmo:42049:1,2004-07-02T14:00:00Z,28.3507,-96.0058,2.0,31.59013503,6.4332962,-99999.0,'11133222,11111222,99999999' 
TABS,ioos:station:wmo:42049:1,2004-07-02T14:30:00Z,28.3507,-96.0058,2.0,36.41650382,6.064189971,-99999.0,'11133222,11111222,99999999' 
TABS,ioos:station:wmo:42049:1,2004-07-02T15:00:00Z,28.3507,-96.0058,2.0,26.81968358,7.048155787,-99999.0,'11133222,11111222,99999999' 
TABS,ioos:station:wmo:42049:1,2004-07-02T15:30:00Z,28.3507,-96.0058,2.0,41.05715011,6.272742622,-99999.0,'11133222,11111222,99999999' 
TABS,ioos:station:wmo:42049:1,2004-07-02T16:00:00Z,28.3507,-96.0058,2.0,29.28432153,5.090550069,-99999.0,'11133222,11111222,99999999' 
TABS,ioos:station:wmo:42049:1,2004-07-02T16:30:00Z,28.3507,-96.0058,2.0,54.43562748,7.461936746,-99999.0,'11133222,11111222,99999999' 
TABS,ioos:station:wmo:42049:1,2004-07-02T17:00:00Z,28.3507,-96.0058,2.0,64.14975867,6.811593059,-99999.0,'11133222,11111222,99999999' 
TABS,ioos:station:wmo:42049:1,2004-07-02T17:30:00Z,28.3507,-96.0058,2.0,70.58157467,8.843031155,-99999.0,'11133222,11111222,99999999' 
TABS,ioos:station:wmo:42049:1,2004-07-02T18:00:00Z,28.3507,-96.0058,2.0,56.81959443,9.355388821,-99999.0,'11133222,11111222,99999999' 
TABS,ioos:station:wmo:42049:1,2004-07-02T18:30:00Z,28.3507,-96.0058,2.0,69.14559073,4.26971896,-99999.0,'11133222,11111222,99999999' 
TABS,ioos:station:wmo:42049:1,2004-07-02T19:00:00Z,28.3507,-96.0058,2.0,69.93638181,7.899398711,-99999.0,'11133222,11111222,99999999' 
TABS,ioos:station:wmo:42049:1,2004-07-02T19:30:00Z,28.3507,-96.0058,2.0,66.08329904,8.904588705,-99999.0,'11133222,11111222,99999999' 
TABS,ioos:station:wmo:42049:1,2004-07-02T20:00:00Z,28.3507,-96.0058,2.0,50.2641682,6.319905063,-99999.0,'11133222,11111222,99999999' 
TABS,ioos:station:wmo:42049:1,2004-07-02T20:30:00Z,28.3507,-96.0058,2.0,97.36045992,4.527306042,-99999.0,'11133222,11111222,99999999' 
TABS,ioos:station:wmo:42049:1,2004-07-02T21:00:00Z,28.3507,-96.0058,2.0,84.40921706,5.2349021,-99999.0,'11133222,11111222,99999999' 
TABS,ioos:station:wmo:42049:1,2004-07-02T21:30:00Z,28.3507,-96.0058,2.0,135.8326217,4.865408513,-99999.0,'11133222,11111222,99999999' 
TABS,ioos:station:wmo:42049:1,2004-07-02T22:00:00Z,28.3507,-96.0058,2.0,150.710729,5.457700981,-99999.0,'11133222,11111222,99999999' 
TABS,ioos:station:wmo:42049:1,2004-07-02T22:30:00Z,28.3507,-96.0058,2.0,144.2626983,3.338652423,-99999.0,'11133222,11111222,99999999' 
TABS,ioos:station:wmo:42049:1,2004-07-02T23:00:00Z,28.3507,-96.0058,2.0,165.0207106,3.095173662,-99999.0,'11133222,11111222,99999999' 
TABS,ioos:station:wmo:42049:1,2004-07-02T23:30:00Z,28.3507,-96.0058,2.0,158.3732646,4.25987089,-99999.0,'11133222,11111222,99999999' 
TABS,ioos:station:wmo:42049:1,2004-07-03T00:00:00Z,28.3507,-96.0058,2.0,174.1138155,2.925423046,-99999.0,'11133222,11111222,99999999' 
TABS,ioos:station:wmo:42049:1,2004-07-03T00:30:00Z,28.3507,-96.0058,2.0,141.2879658,8.586436979,-99999.0,'11133222,11111222,99999999' 
TABS,ioos:station:wmo:42049:1,2004-07-03T01:00:00Z,28.3507,-96.0058,2.0,164.1381101,15.9887867,-99999.0,'11111222,11111222,99999999' 
TABS,ioos:station:wmo:42049:1,2004-07-03T01:30:00Z,28.3507,-96.0058,2.0,162.4643035,8.662545815,-99999.0,'11133222,11111222,99999999' 
TABS,ioos:station:wmo:42049:1,2004-07-03T02:00:00Z,28.3507,-96.0058,2.0,219.6791006,4.651591126,-99999.0,'11133222,11111222,99999999' 
TABS,ioos:station:wmo:42049:1,2004-07-03T02:30:00Z,28.3507,-96.0058,2.0,173.383776,6.422771987,-99999.0,'11133222,11111222,99999999' 
TABS,ioos:station:wmo:42049:1,2004-07-03T03:00:00Z,28.3507,-96.0058,2.0,218.9407108,3.818494468,-99999.0,'11133222,11111222,99999999' 
TABS,ioos:station:wmo:42049:1,2004-07-03T03:30:00Z,28.3507,-96.0058,2.0,261.1117482,4.919064952,-99999.0,'11133222,11111222,99999999' 
TABS,ioos:station:wmo:42049:1,2004-07-03T04:00:00Z,28.3507,-96.0058,2.0,292.5101903,4.806162711,-99999.0,'11133222,11111222,99999999' 
TABS,ioos:station:wmo:42049:1,2004-07-03T04:30:00Z,28.3507,-96.0058,2.0,296.9509089,5.317490009,-99999.0,'11133222,11111222,99999999' 
TABS,ioos:station:wmo:42049:1,2004-07-03T05:00:00Z,28.3507,-96.0058,2.0,285.3172449,4.883461887,-99999.0,'11133222,11111222,99999999' 
TABS,ioos:station:wmo:42049:1,2004-07-03T05:30:00Z,28.3507,-96.0058,2.0,309.2362956,5.28050187,-99999.0,'11133222,11111222,99999999' 
TABS,ioos:station:wmo:42049:1,2004-07-03T06:00:00Z,28.3507,-96.0058,2.0,296.9856639,5.487458428,-99999.0,'11133222,11111222,99999999' 
TABS,ioos:station:wmo:42049:1,2004-07-03T06:30:00Z,28.3507,-96.0058,2.0,305.1345318,5.942726647,-99999.0,'11133222,11111222,99999999' 
TABS,ioos:station:wmo:42049:1,2004-07-03T07:00:00Z,28.3507,-96.0058,2.0,317.4005245,4.727620966,-99999.0,'11133222,11111222,99999999' 
TABS,ioos:station:wmo:42049:1,2004-07-03T07:30:00Z,28.3507,-96.0058,2.0,305.1978419,4.111751452,-99999.0,'11133222,11111222,99999999' 
TABS,ioos:station:wmo:42049:1,2004-07-03T08:00:00Z,28.3507,-96.0058,2.0,320.7199141,4.469955257,-99999.0,'11133222,11111222,99999999' 
TABS,ioos:station:wmo:42049:1,2004-07-03T08:30:00Z,28.3507,-96.0058,2.0,328.5307772,2.720073528,-99999.0,'11133222,11111222,99999999' 
TABS,ioos:station:wmo:42049:1,2004-07-03T09:00:00Z,28.3507,-96.0058,2.0,341.6708215,5.151359044,-99999.0,'11133222,11111222,99999999' 
TABS,ioos:station:wmo:42049:1,2004-07-03T09:30:00Z,28.3507,-96.0058,2.0,347.9887602,5.766246613,-99999.0,'11133222,11111222,99999999' 
TABS,ioos:station:wmo:42049:1,2004-07-03T10:00:00Z,28.3507,-96.0058,2.0,356.0760165,6.575416337,-99999.0,'11133222,11111222,99999999' 
TABS,ioos:station:wmo:42049:1,2004-07-03T10:30:00Z,28.3507,-96.0058,2.0,9.312241301,4.387824062,-99999.0,'11133222,11111222,99999999' 
TABS,ioos:station:wmo:42049:1,2004-07-03T11:00:00Z,28.3507,-96.0058,2.0,22.25522785,7.974007775,-99999.0,'11133222,11111222,99999999' 
TABS,ioos:station:wmo:42049:1,2004-07-03T11:30:00Z,28.3507,-96.0058,2.0,36.59386541,7.884091577,-99999.0,'11133222,11111222,99999999' 
TABS,ioos:station:wmo:42049:1,2004-07-03T12:00:00Z,28.3507,-96.0058,2.0,21.37078275,10.62021657,-99999.0,'11111222,11111222,99999999' 
TABS,ioos:station:wmo:42049:1,2004-07-03T12:30:00Z,28.3507,-96.0058,2.0,42.83974523,10.69198298,-99999.0,'11111222,11111222,99999999' 
TABS,ioos:station:wmo:42049:1,2004-07-03T13:00:00Z,28.3507,-96.0058,2.0,60.94040194,10.99398472,-99999.0,'11111222,11111222,99999999' 
TABS,ioos:station:wmo:42049:1,2004-07-03T13:30:00Z,28.3507,-96.0058,2.0,71.13480579,10.94811399,-99999.0,'11111222,11111222,99999999' 
TABS,ioos:station:wmo:42049:1,2004-07-03T14:00:00Z,28.3507,-96.0058,2.0,76.46417528,13.33026631,-99999.0,'11111222,11111222,99999999' 
TABS,ioos:station:wmo:42049:1,2004-07-03T14:30:00Z,28.3507,-96.0058,2.0,69.9246173,10.60430101,-99999.0,'11111222,11111222,99999999' 
TABS,ioos:station:wmo:42049:1,2004-07-03T15:00:00Z,28.3507,-96.0058,2.0,84.33943889,37.61341516,-99999.0,'11111222,11111222,99999999' 
TABS,ioos:station:wmo:42049:1,2004-07-03T15:30:00Z,28.3507,-96.0058,2.0,91.64867935,36.49510789,-99999.0,'11111222,11111222,99999999' 
TABS,ioos:station:wmo:42049:1,2004-07-03T16:00:00Z,28.3507,-96.0058,2.0,105.8933684,33.30308244,-99999.0,'11111222,11111222,99999999' 
TABS,ioos:station:wmo:42049:1,2004-07-03T16:30:00Z,28.3507,-96.0058,2.0,111.1250558,31.46455307,-99999.0,'11111222,11111222,99999999' 
TABS,ioos:station:wmo:42049:1,2004-07-03T17:00:00Z,28.3507,-96.0058,2.0,100.0854527,28.2667897,-99999.0,'11111222,11111222,99999999' 
TABS,ioos:station:wmo:42049:1,2004-07-03T17:30:00Z,28.3507,-96.0058,2.0,110.43475,32.07870945,-99999.0,'11111222,11111222,99999999' 
TABS,ioos:station:wmo:42049:1,2004-07-03T18:00:00Z,28.3507,-96.0058,2.0,116.2027999,29.71346496,-99999.0,'11111222,11111222,99999999' 
TABS,ioos:station:wmo:42049:1,2004-07-03T18:30:00Z,28.3507,-96.0058,2.0,121.1635809,31.45989193,-99999.0,'11111222,11111222,99999999' 
TABS,ioos:station:wmo:42049:1,2004-07-03T19:00:00Z,28.3507,-96.0058,2.0,129.6528257,33.15910885,-99999.0,'11111222,11111222,99999999' 
TABS,ioos:station:wmo:42049:1,2004-07-03T19:30:00Z,28.3507,-96.0058,2.0,136.3988836,32.72758622,-99999.0,'11111222,11111222,99999999' 
TABS,ioos:station:wmo:42049:1,2004-07-03T20:00:00Z,28.3507,-96.0058,2.0,128.0773524,35.49388257,-99999.0,'11111222,11111222,99999999' 
TABS,ioos:station:wmo:42049:1,2004-07-03T20:30:00Z,28.3507,-96.0058,2.0,118.6152486,28.25067964,-99999.0,'11111222,11111222,99999999' 
TABS,ioos:station:wmo:42049:1,2004-07-03T21:00:00Z,28.3507,-96.0058,2.0,150.3531412,26.7865806,-99999.0,'11111222,11111222,99999999' 
TABS,ioos:station:wmo:42049:1,2004-07-03T21:30:00Z,28.3507,-96.0058,2.0,137.5151407,16.43485321,-99999.0,'11111222,11111222,99999999' 
TABS,ioos:station:wmo:42049:1,2004-07-03T22:00:00Z,28.3507,-96.0058,2.0,135.646545,18.79609534,-99999.0,'11111222,11111222,99999999' 
TABS,ioos:station:wmo:42049:1,2004-07-03T22:30:00Z,28.3507,-96.0058,2.0,156.2876045,25.33922059,-99999.0,'11111222,11111222,99999999' 
TABS,ioos:station:wmo:42049:1,2004-07-03T23:00:00Z,28.3507,-96.0058,2.0,168.0685972,12.47960336,-99999.0,'11111222,11111222,99999999' 
TABS,ioos:station:wmo:42049:1,2004-07-03T23:30:00Z,28.3507,-96.0058,2.0,191.4834498,10.34713487,-99999.0,'11111222,11111222,99999999' 
TABS,ioos:station:wmo:42049:1,2004-07-04T00:00:00Z,28.3507,-96.0058,2.0,210.8892886,7.947251097,-99999.0,'11133222,11111222,99999999' 
TABS,ioos:station:wmo:42049:1,2004-07-04T00:30:00Z,28.3507,-96.0058,2.0,216.5539981,8.7141322,-99999.0,'11133222,11111222,99999999' 
TABS,ioos:station:wmo:42049:1,2004-07-04T01:00:00Z,28.3507,-96.0058,2.0,233.7588331,7.104428197,-99999.0,'11133222,11111222,99999999' 
TABS,ioos:station:wmo:42049:1,2004-07-04T01:30:00Z,28.3507,-96.0058,2.0,287.6050131,6.546602172,-99999.0,'11133222,11111222,99999999' 
TABS,ioos:station:wmo:42049:1,2004-07-04T02:00:00Z,28.3507,-96.0058,2.0,341.2959518,4.708683468,-99999.0,'11133222,11111222,99999999' 
TABS,ioos:station:wmo:42049:1,2004-07-04T02:30:00Z,28.3507,-96.0058,2.0,338.009132,14.02007489,-99999.0,'11111222,11111222,99999999' 
TABS,ioos:station:wmo:42049:1,2004-07-04T03:00:00Z,28.3507,-96.0058,2.0,340.9746489,19.01894845,-99999.0,'11111222,11111222,99999999' 
TABS,ioos:station:wmo:42049:1,2004-07-04T03:30:00Z,28.3507,-96.0058,2.0,348.2502544,20.42805913,-99999.0,'11111222,11111222,99999999' 
TABS,ioos:station:wmo:42049:1,2004-07-04T04:00:00Z,28.3507,-96.0058,2.0,344.6739085,14.11187443,-99999.0,'11111222,11111222,99999999' 
TABS,ioos:station:wmo:42049:1,2004-07-04T04:30:00Z,28.3507,-96.0058,2.0,354.4834673,25.58852282,-99999.0,'11111222,11111222,99999999' 
TABS,ioos:station:wmo:42049:1,2004-07-04T05:00:00Z,28.3507,-96.0058,2.0,357.4503512,27.6473742,-99999.0,'11111222,11111222,99999999' 
TABS,ioos:station:wmo:42049:1,2004-07-04T05:30:00Z,28.3507,-96.0058,2.0,3.432840207,34.57202626,-99999.0,'11111222,11111222,99999999' 
TABS,ioos:station:wmo:42049:1,2004-07-04T06:00:00Z,28.3507,-96.0058,2.0,5.245898477,40.46949468,-99999.0,'11111222,11111222,99999999' 
TABS,ioos:station:wmo:42049:1,2004-07-04T07:00:00Z,28.3507,-96.0058,2.0,15.50129115,45.34957993,-99999.0,'11111222,11111222,99999999' 
TABS,ioos:station:wmo:42049:1,2004-07-04T07:30:00Z,28.3507,-96.0058,2.0,21.51558944,45.01682463,-99999.0,'11111222,11111222,99999999' 
TABS,ioos:station:wmo:42049:1,2004-07-04T08:00:00Z,28.3507,-96.0058,2.0,26.04384548,46.69103233,-99999.0,'11111222,11111222,99999999' 
TABS,ioos:station:wmo:42049:1,2004-07-04T08:30:00Z,28.3507,-96.0058,2.0,27.84597576,49.21920865,-99999.0,'11111222,11111222,99999999' 
TABS,ioos:station:wmo:42049:1,2004-07-04T09:00:00Z,28.3507,-96.0058,2.0,31.74107337,47.54035128,-99999.0,'11111222,11111222,99999999' 
TABS,ioos:station:wmo:42049:1,2004-07-04T09:30:00Z,28.3507,-96.0058,2.0,31.64242984,43.15550023,-99999.0,'11111222,11111222,99999999' 
TABS,ioos:station:wmo:42049:1,2004-07-04T10:00:00Z,28.3507,-96.0058,2.0,30.72315799,41.63336402,-99999.0,'11111222,11111222,99999999' 
TABS,ioos:station:wmo:42049:1,2004-07-04T10:30:00Z,28.3507,-96.0058,2.0,35.3798051,34.14554876,-99999.0,'11111222,11111222,99999999' 
TABS,ioos:station:wmo:42049:1,2004-07-04T11:00:00Z,28.3507,-96.0058,2.0,28.08501388,19.05352986,-99999.0,'11111222,11111222,99999999' 
TABS,ioos:station:wmo:42049:1,2004-07-04T11:30:00Z,28.3507,-96.0058,2.0,43.36683393,28.03403111,-99999.0,'11111222,11111222,99999999' 
TABS,ioos:station:wmo:42049:1,2004-07-04T12:00:00Z,28.3507,-96.0058,2.0,45.21278297,28.57438188,-99999.0,'11111222,11111222,99999999' 
TABS,ioos:station:wmo:42049:1,2004-07-04T12:30:00Z,28.3507,-96.0058,2.0,48.40844079,32.94581157,-99999.0,'11111222,11111222,99999999' 
TABS,ioos:station:wmo:42049:1,2004-07-04T13:00:00Z,28.3507,-96.0058,2.0,60.37727014,30.85246992,-99999.0,'11111222,11111222,99999999' 
TABS,ioos:station:wmo:42049:1,2004-07-04T13:30:00Z,28.3507,-96.0058,2.0,64.48374366,28.83221809,-99999.0,'11111222,11111222,99999999' 
TABS,ioos:station:wmo:42049:1,2004-07-04T14:00:00Z,28.3507,-96.0058,2.0,74.2265041,26.56015813,-99999.0,'11111222,11111222,99999999' 
TABS,ioos:station:wmo:42049:1,2004-07-04T14:30:00Z,28.3507,-96.0058,2.0,78.38215617,24.08340923,-99999.0,'11111222,11111222,99999999' 
TABS,ioos:station:wmo:42049:1,2004-07-04T15:00:00Z,28.3507,-96.0058,2.0,81.61298723,20.49923169,-99999.0,'11111222,11111222,99999999' 
TABS,ioos:station:wmo:42049:1,2004-07-04T15:30:00Z,28.3507,-96.0058,2.0,93.13685556,15.53327396,-99999.0,'11111222,11111222,99999999' 
TABS,ioos:station:wmo:42049:1,2004-07-04T16:00:00Z,28.3507,-96.0058,2.0,96.54079631,17.03085435,-99999.0,'11111222,11111222,99999999' 
TABS,ioos:station:wmo:42049:1,2004-07-04T16:30:00Z,28.3507,-96.0058,2.0,95.24453068,13.45633308,-99999.0,'11111222,11111222,99999999' 